Home   Weather   Peoria   Past weeks

Flag for USA Past Weather in Peoria, Illinois, USA — Yesterday and Last 2 Weeks

Now
40 °F

Clear.


Feels Like: 40 °F
Forecast: 38 / 67 °F
Wind: No wind

Location: Greater Peoria Regional Airport

Current Time: Apr 23, 2017 at 3:31:52 am

Latest Report: Apr 23, 2017 at 2:54 am


Visibility: 10 mi

Pressure: 30.13 "Hg

Humidity: 68%

Dew Point: 30 °F

Location of PeoriaLocation

Past Weather in Peoria — Graph

°F

Peoria Temperature Yesterday

Maximum temperature yesterday: 64 °F (at 3:54 pm)
Minimum temperature yesterday: 44 °F (at 6:54 am)
Average temperature yesterday: 53 °F

High & Low Weather Summary for the Past Weeks

 TemperatureHumidityPressure
High82 °F (Apr 19, 4:54 pm)100% (Apr 16, 4:29 am)30.38 "Hg (Apr 16, 4:29 am)
Low40 °F (Apr 12, 4:54 am)25% (Apr 17, 3:54 pm)29.61 "Hg (Apr 9, 4:54 pm)
Average61 °F63%30.03 "Hg
* Reported Apr 8 1:54 am — Apr 23 1:54 am, Peoria, Weather by CustomWeather, © 2017

Note: Actual official high and low records may vary slightly from our data, if they occured in-between our weather recording intervals... More about our weather records

Advertising

Peoria Weather History for the Previous 24 Hours

Scroll right to see more
 ConditionsComfort  
Time TempWeatherWind HumidityBarometerVisibility
1:54 am
Sun, Apr 23
42 °FClear.No wind57%30.14 "Hg10 mi
12:54 am46 °FClear.5 mph48%30.15 "Hg10 mi
11:54 pm
Sat, Apr 22
47 °FClear.5 mph46%30.16 "Hg10 mi
10:54 pm50 °FClear.6 mph39%30.16 "Hg10 mi
9:54 pm50 °FClear.6 mph41%30.14 "Hg10 mi
8:54 pm54 °FClear.6 mph34%30.13 "Hg10 mi
7:54 pm57 °FClear.7 mph29%30.12 "Hg10 mi
6:54 pm61 °FSunny.15 mph26%30.12 "Hg10 mi
5:54 pm63 °FSunny.9 mph26%30.11 "Hg10 mi
4:54 pm64 °FSunny.17 mph27%30.10 "Hg10 mi
3:54 pm64 °FSunny.14 mph29%30.10 "Hg10 mi
2:54 pm63 °FSunny.17 mph33%30.12 "Hg10 mi
1:54 pm60 °FSunny.15 mph42%30.15 "Hg10 mi
12:54 pm59 °FSunny.14 mph44%30.17 "Hg10 mi
11:54 am57 °FSunny.17 mph44%30.18 "Hg10 mi
10:54 am54 °FSunny.15 mph53%30.19 "Hg10 mi
9:54 am51 °FSunny.15 mph61%30.18 "Hg10 mi
8:54 am47 °FSunny.16 mph66%30.17 "Hg10 mi
7:54 am45 °FSunny.17 mph71%30.16 "Hg10 mi
6:54 am44 °FSunny.14 mph71%30.15 "Hg10 mi
5:54 am45 °FClear.9 mph65%30.14 "Hg10 mi
4:54 am45 °FClear.12 mph65%30.11 "Hg10 mi
3:54 am45 °FClear.8 mph63%30.10 "Hg10 mi
Weather by CustomWeather, © 2017

See weather overviewHow to use our weather pages